Карточка аэропорта UWOO

Внимание!
Информация на этой странице в стадии наполнения.
Если вы не увидели какой-то информации, или заметили неточность - пожалуйста сообщите нам!
Спасибо!
Команда RU-STAFF
Название аэропортаОренбург
Название аэропорта (англ.)Orenburg
Превышение387 ft. (118 m.)
Координаты51°48', 55°27'
Высота перехода700m
Эшелон переходаBy ATC
Коды ответчика2440-2443
Зона ОрВДСамара РПИ (UWWW)
Данные METARUWOO 241530Z 13008G13MPS 9999 SCT040CB 15/M05 Q1017 R08/60D NOSIG RMK QFE752/1003
Проноз погоды (TAF)UWOO 241340Z 2415/2515 12007G14MPS 9999 BKN020CB TX16/2510Z TN08/2502Z TEMPO 2415/2515 14010G20MPS 6000 -SHRA FEW010 BKN016CB
NOTAMshow/hide NOTAM
AWOS   TABLE

Информация о ВПП

ВПП Длина ВПП (м.) Покрытие Курс ВПП Частота ILS
082501Асфальтобетон79109
262501Асфальтобетон259109.3

Диспетчерские позиции

Позывной Наименование органа УВД Частота
UWOO_TWRОренбург- Вышка128.0
UWOO_R_APPОренбург - Круг120.400



Спутниковое изображение